Wind_Speed
22 22 22 22 23 23 22 22 21 21 21 21 21 21 22 23 23 24 25 25 25 25 26 25 25 25 25 26 26 26 26 26 26 26 26 26 26 26 26 26 26 25 25
21 22 23 24 24 23 23 21 22 21 21 21 22 23 23 24 24 24 24 24 25 25 25 25 25 25 25 25 24 25 25 26 25 26 26 26 27 27 26 26 25 26 26
20 22 24 24 24 24 24 22 22 22 22 22 22 23 24 24 24 25 26 26 26 25 25 25 25 25 24 24 25 25 25 25 26 26 26 27 28 28 27 26 26 26 26
21 22 24 24 24 24 24 23 23 24 24 23 24 24 24 25 26 26 27 27 26 26 25 24 24 24 25 25 26 25 26 26 26 26 27 27 27 27 26 26 26 25 25
19 20 22 23 24 24 23 23 24 25 25 25 25 25 26 26 26 27 27 28 27 27 26 25 25 25 25 25 26 26 27 27 27 27 27 27 28 28 27 26 26 26 26
19 20 21 23 24 24 25 26 26 26 26 25 25 26 27 27 27 27 28 28 27 27 27 26 26 26 26 25 25 25 26 27 27 27 27 27 27 27 27 26 27 27 26
19 20 21 23 23 25 26 26 25 25 25 25 26 27 27 28 28 28 28 28 27 26 26 26 26 26 26 27 26 25 26 26 26 26 26 26 26 27 27 28 28 28 28
19 20 21 22 22 24 25 24 25 26 26 26 26 27 26 27 27 27 27 27 27 26 26 25 26 26 27 28 28 27 27 26 25 25 26 27 28 28 29 29 30 30 29
19 19 19 20 21 22 24 24 25 26 25 26 26 26 27 27 27 27 27 27 27 26 26 26 26 27 27 27 27 28 28 27 27 27 27 28 28 29 29 30 30 29 29
19 19 19 19 20 22 23 24 24 25 26 26 27 27 28 28 28 28 27 27 27 27 27 26 27 27 27 27 28 28 28 28 28 28 29 29 29 29 29 29 29 30 30
20 20 20 20 21 22 22 23 24 25 25 25 26 27 27 28 28 28 28 27 27 27 27 27 27 27 27 27 28 28 28 29 29 30 30 30 30 30 31 31 31 31 31
19 19 19 20 21 22 23 23 24 24 24 25 25 25 26 27 27 27 28 28 28 28 27 26 26 26 26 26 27 28 29 30 30 30 31 31 31 31 31 31 31 31 31
19 20 20 20 21 22 23 23 23 24 24 25 26 26 26 26 26 27 27 27 27 28 28 27 26 26 26 26 27 27 28 29 30 30 31 31 32 32 32 31 32 32 32
19 20 20 20 21 22 22 23 23 24 24 25 26 25 25 25 25 25 26 26 27 27 27 27 27 26 26 27 27 28 28 29 30 30 31 31 31 32 33 33 33 32 32
19 19 20 20 20 21 22 23 23 23 23 24 24 24 24 25 24 24 24 24 24 25 25 25 25 26 26 26 27 28 28 28 29 29 30 29 30 31 32 32 32 32 32
18 19 19 20 20 20 21 21 22 21 21 22 22 23 23 23 23 23 22 22 23 23 23 23 24 25 25 26 26 27 27 27 27 27 28 29 29 29 29 30 31 31 31
17 17 18 18 19 19 20 20 21 21 20 20 21 20 21 20 20 21 21 21 22 22 23 23 23 24 24 25 25 25 25 25 25 26 26 27 27 27 28 28 29 29 29
16 16 16 17 17 18 18 19 19 18 18 18 18 18 19 19 19 19 20 20 21 21 21 21 21 22 22 22 23 23 23 23 24 24 25 26 26 26 27 26 27 27 27
15 14 15 16 16 17 17 16 15 15 15 16 16 16 17 17 17 17 17 18 18 19 19 19 19 20 20 20 21 21 21 21 22 23 23 24 24 24 24 25 25 25 25
14 14 15 15 15 15 14 14 13 13 13 13 14 14 14 14 15 15 15 16 16 17 17 17 18 18 18 19 18 18 18 19 19 20 20 20 21 21 21 21 22 22 22
14 14 14 14 14 13 13 12 12 12 12 12 12 12 12 12 12 13 13 14 14 14 15 15 15 16 16 16 16 16 17 16 16 16 16 16 16 17 17 18 18 18 19
14 14 14 13 13 12 12 12 12 11 11 11 11 11 11 11 11 11 11 12 12 12 12 12 13 13 13 13 13 14 14 14 14 13 13 13 13 13 13 14 14 14 15
13 14 13 13 12 12 12 11 12 11 11 11 10 10 10 10 10 11 11 11 11 10 10 10 9 9 10 10 11 11 11 11 11 11 10 10 10 9 9 10 11 11 11
13 14 13 13 12 12 12 12 12 12 12 11 11 10 10 10 11 11 11 10 9 9 9 8 8 7 7 7 8 8 8 8 8 7 6 6 6 6 7 8 8 9 10
13 13 13 13 13 13 13 13 12 12 12 12 11 11 10 10 10 10 10 10 9 10 9 8 7 7 7 7 7 6 6 5 4 3 2 2 3 3 4 5 6 7 8
13 13 13 13 13 13 13 13 13 13 12 12 12 11 11 10 10 10 10 10 10 10 9 9 8 8 8 7 7 7 6 5 4 3 1 0 1 1 2 2 4 5 5
Wind_Direction
263 266 270 269 268 270 270 267 270 273 276 278 279 281 282 282 282 283 284 283 281 281 278 277 275 274 271 270 267 265 265 261 258 256 256 257 257 257 257 255 255 254 252
265 265 270 269 270 270 270 269 270 274 277 278 279 280 283 283 283 284 283 283 284 283 281 276 274 273 270 268 265 263 263 260 257 255 256 257 256 256 256 256 255 254 254
270 272 269 269 271 273 271 270 271 274 276 278 280 282 282 283 284 284 283 283 284 283 280 277 273 270 269 267 264 263 262 260 258 255 255 254 255 255 256 254 254 254 255
276 276 273 270 271 273 273 272 273 274 274 276 279 281 282 283 285 285 284 285 284 283 280 275 274 273 270 268 265 263 262 260 258 255 254 254 253 254 256 253 252 252 253
279 280 276 273 272 270 273 275 275 274 274 275 277 280 281 282 283 284 284 285 283 280 279 276 274 271 270 268 265 262 260 260 258 256 255 255 253 254 254 253 251 251 253
279 279 276 272 272 271 276 276 277 276 273 275 277 279 281 281 282 282 283 284 282 278 277 276 275 273 271 270 267 263 261 259 258 256 255 254 253 252 252 252 252 253 253
280 279 277 275 272 273 278 277 278 279 277 277 279 280 281 282 281 281 282 283 281 279 277 275 272 272 270 268 265 264 262 260 257 257 256 254 253 251 252 252 253 254 255
282 283 279 277 274 275 277 278 278 279 279 278 278 279 281 282 282 281 281 281 279 278 277 274 272 271 269 266 264 263 262 261 259 257 255 254 253 253 253 253 253 253 254
285 286 280 276 275 277 277 277 277 277 279 280 280 279 279 280 281 281 281 280 277 276 276 275 273 273 271 267 264 263 262 261 259 257 256 255 254 254 254 255 254 254 254
287 286 284 281 277 277 277 278 278 280 282 282 282 281 280 280 280 280 280 279 277 276 275 274 273 271 270 265 263 263 263 262 261 260 259 257 256 255 255 255 255 254 255
286 286 286 284 283 285 283 281 279 280 281 282 282 281 281 279 279 280 278 278 277 276 274 274 272 270 269 265 265 265 265 263 261 259 259 258 257 257 256 256 256 255 254
291 288 287 286 286 287 286 284 282 280 281 282 282 282 281 280 280 279 277 276 276 275 274 274 273 271 271 268 265 264 264 263 261 260 259 259 258 256 256 256 256 256 256
291 290 288 288 288 288 288 289 286 284 283 282 283 284 283 282 281 279 277 276 276 274 274 274 273 272 271 270 268 266 265 263 262 260 260 260 258 257 257 256 256 256 256
293 291 291 291 291 291 292 293 291 287 285 285 286 287 286 283 282 281 279 278 277 276 274 274 274 273 273 272 271 269 267 265 264 263 263 262 259 258 257 257 257 257 257
297 294 294 293 292 293 294 293 292 289 289 289 288 288 287 285 283 281 280 280 278 277 276 274 274 273 272 272 271 271 270 268 266 265 264 263 261 261 260 259 258 257 257
303 301 299 297 295 294 294 294 293 293 292 291 290 289 289 287 284 284 282 281 281 280 280 278 276 276 275 274 274 273 270 269 268 267 267 265 263 262 261 260 259 258 258
308 308 308 306 304 300 298 297 297 296 295 295 295 293 292 291 289 286 284 281 281 280 281 280 278 278 277 277 275 273 271 271 270 269 268 268 266 265 264 262 259 259 259
315 314 312 311 309 306 305 305 302 299 299 299 297 296 295 295 294 290 287 284 282 281 280 281 281 280 280 278 276 275 274 274 272 271 269 268 267 266 264 262 259 258 257
323 322 321 321 320 319 316 312 307 306 305 302 300 300 299 298 298 293 290 288 286 285 283 281 282 282 281 280 278 277 277 276 275 273 272 269 267 266 262 260 258 256 254
329 328 329 330 329 329 327 322 318 316 313 310 307 307 308 307 305 304 302 299 294 290 289 287 285 284 282 281 279 279 280 280 277 275 273 270 267 264 261 259 256 254 254
339 338 337 337 337 337 336 336 336 332 326 321 316 315 316 315 314 311 309 307 303 299 295 292 290 288 285 284 283 284 285 285 282 279 275 272 267 262 259 256 254 253 252
347 346 345 345 344 343 342 344 344 342 336 330 328 326 328 328 323 320 317 316 315 312 308 304 300 297 292 289 288 289 289 289 285 279 276 272 268 263 258 254 250 247 247
354 354 354 354 353 351 351 351 351 349 346 344 341 338 338 337 334 332 331 329 326 323 321 320 318 314 308 304 300 298 297 294 289 282 274 268 264 254 249 248 245 239 235
2 2 3 3 2 1 1 359 357 357 356 354 354 353 349 348 347 344 341 342 345 345 344 343 340 338 335 329 323 315 307 303 298 289 275 262 251 242 239 238 237 234 229
9 10 11 11 9 6 5 4 2 0 1 0 360 2 2 357 356 354 352 354 357 359 0 2 3 4 2 360 357 350 339 329 323 312 280 245 231 234 228 230 230 225 219
15 16 16 16 15 13 11 11 9 7 6 4 5 5 6 6 3 1 3 6 7 6 7 8 11 10 9 11 13 16 15 13 17 20 29 246 232 217 211 219 220 217 214
Height
5847 5847 5847 5847 5847 5846 5845 5845 5845 5844 5843 5842 5841 5841 5840 5839 5838 5837 5836 5834 5834 5832 5831 5831 5830 5829 5829 5829 5829 5829 5829 5830 5831 5832 5833 5834 5834 5836 5837 5838 5839 5840 5841
5842 5842 5841 5841 5841 5841 5840 5839 5839 5838 5838 5837 5836 5836 5834 5833 5832 5831 5830 5828 5827 5826 5825 5824 5823 5823 5822 5822 5822 5822 5823 5823 5824 5825 5826 5827 5829 5830 5831 5832 5833 5834 5835
5837 5837 5837 5836 5835 5835 5834 5834 5834 5833 5833 5832 5831 5830 5829 5828 5826 5825 5824 5822 5821 5819 5818 5817 5816 5816 5816 5816 5816 5816 5816 5816 5817 5818 5820 5821 5823 5824 5825 5826 5827 5828 5829
5832 5832 5831 5830 5829 5830 5829 5829 5828 5828 5827 5826 5825 5824 5823 5821 5820 5819 5817 5816 5814 5812 5811 5810 5810 5809 5809 5809 5809 5809 5809 5810 5810 5811 5813 5814 5816 5817 5819 5820 5821 5822 5823
5827 5826 5825 5824 5823 5823 5823 5823 5822 5822 5820 5819 5818 5818 5816 5815 5813 5812 5811 5809 5807 5806 5805 5804 5803 5803 5803 5802 5802 5803 5803 5803 5804 5805 5806 5807 5809 5810 5812 5813 5815 5816 5817
5822 5821 5820 5819 5818 5817 5818 5818 5817 5816 5814 5813 5812 5811 5810 5808 5806 5805 5804 5803 5801 5800 5798 5797 5797 5796 5796 5796 5796 5796 5796 5797 5798 5798 5800 5801 5802 5804 5805 5807 5808 5809 5810
5817 5815 5814 5814 5813 5812 5812 5811 5810 5809 5808 5807 5806 5805 5803 5802 5800 5799 5797 5796 5794 5793 5792 5791 5790 5790 5789 5789 5789 5789 5789 5790 5791 5791 5792 5794 5796 5797 5798 5800 5801 5802 5803
5812 5810 5809 5808 5807 5807 5806 5805 5804 5803 5802 5801 5799 5798 5797 5795 5793 5791 5790 5788 5787 5786 5785 5784 5783 5783 5782 5782 5782 5782 5783 5783 5784 5785 5786 5787 5789 5790 5791 5793 5794 5795 5797
5807 5806 5804 5803 5801 5800 5800 5799 5797 5796 5795 5794 5793 5791 5790 5788 5786 5784 5782 5781 5780 5779 5778 5777 5776 5776 5775 5775 5775 5775 5775 5776 5777 5777 5779 5780 5781 5782 5784 5785 5786 5788 5789
5803 5801 5799 5797 5796 5795 5794 5792 5791 5790 5788 5787 5785 5784 5782 5780 5778 5777 5775 5774 5773 5772 5771 5770 5769 5768 5768 5768 5768 5768 5768 5769 5769 5770 5771 5772 5773 5774 5776 5777 5778 5780 5782
5798 5796 5794 5792 5790 5789 5787 5785 5784 5782 5781 5779 5777 5776 5774 5772 5771 5769 5768 5766 5765 5764 5763 5762 5761 5761 5760 5760 5760 5760 5760 5761 5762 5762 5763 5764 5765 5766 5768 5769 5771 5772 5774
5793 5791 5789 5787 5784 5783 5781 5779 5777 5775 5774 5772 5770 5768 5766 5765 5763 5761 5760 5758 5757 5756 5755 5755 5754 5753 5753 5753 5753 5753 5753 5753 5754 5754 5755 5756 5757 5758 5759 5761 5762 5764 5765
5788 5785 5783 5781 5779 5777 5774 5772 5770 5768 5766 5764 5762 5760 5759 5757 5755 5753 5752 5750 5749 5749 5748 5747 5746 5746 5745 5745 5745 5745 5745 5745 5746 5746 5746 5747 5748 5749 5751 5752 5753 5755 5757
5782 5780 5778 5775 5773 5771 5768 5766 5764 5761 5759 5757 5755 5753 5751 5749 5747 5746 5744 5743 5742 5741 5740 5739 5739 5738 5738 5738 5737 5737 5737 5737 5737 5738 5738 5738 5739 5740 5741 5743 5744 5746 5748
5777 5774 5772 5770 5767 5765 5762 5760 5757 5755 5752 5750 5748 5745 5744 5742 5740 5739 5737 5736 5735 5734 5733 5732 5731 5731 5731 5730 5730 5729 5729 5729 5729 5729 5730 5730 5730 5731 5732 5734 5736 5737 5739
5771 5769 5766 5763 5761 5758 5756 5753 5751 5748 5746 5743 5741 5739 5737 5735 5733 5732 5730 5729 5728 5727 5726 5725 5725 5724 5723 5723 5722 5722 5722 5721 5721 5721 5721 5722 5722 5723 5724 5725 5727 5729 5731
5767 5764 5761 5758 5755 5752 5749 5747 5744 5742 5740 5737 5735 5733 5731 5729 5727 5726 5724 5723 5722 5721 5720 5719 5718 5717 5717 5716 5715 5715 5714 5714 5714 5713 5714 5714 5714 5715 5716 5717 5718 5720 5722
5762 5759 5756 5753 5750 5747 5744 5741 5739 5736 5735 5732 5730 5728 5726 5724 5722 5720 5719 5718 5716 5715 5714 5713 5712 5711 5710 5709 5709 5708 5708 5707 5706 5706 5706 5706 5707 5707 5708 5709 5711 5712 5714
5758 5755 5752 5749 5746 5742 5739 5737 5734 5732 5730 5728 5726 5724 5722 5720 5717 5716 5714 5713 5711 5710 5708 5707 5706 5705 5704 5704 5703 5702 5701 5701 5700 5699 5699 5699 5700 5700 5701 5702 5703 5705 5706
5755 5752 5749 5745 5742 5739 5736 5733 5731 5729 5727 5725 5722 5720 5718 5716 5714 5712 5710 5708 5707 5705 5704 5702 5701 5700 5699 5698 5697 5697 5696 5695 5694 5693 5693 5693 5693 5693 5694 5695 5696 5698 5700
5752 5749 5746 5743 5740 5737 5734 5731 5729 5726 5724 5722 5720 5717 5715 5713 5711 5709 5707 5705 5703 5701 5700 5698 5697 5696 5695 5693 5693 5692 5691 5690 5689 5688 5688 5687 5687 5688 5688 5689 5691 5692 5694
5750 5747 5744 5741 5738 5735 5732 5730 5727 5725 5722 5720 5717 5715 5713 5711 5708 5706 5704 5702 5700 5698 5697 5695 5694 5692 5691 5690 5689 5688 5687 5685 5684 5684 5683 5683 5683 5683 5684 5685 5686 5688 5690
5749 5746 5742 5739 5737 5734 5731 5729 5726 5723 5721 5718 5716 5713 5711 5709 5707 5705 5703 5700 5698 5696 5695 5693 5691 5690 5689 5687 5686 5685 5683 5682 5681 5680 5680 5680 5680 5680 5681 5682 5683 5685 5686
5748 5745 5742 5739 5736 5734 5731 5728 5726 5723 5720 5718 5715 5712 5710 5708 5706 5704 5701 5699 5697 5695 5693 5692 5690 5689 5688 5686 5684 5683 5681 5680 5679 5678 5678 5678 5678 5679 5679 5680 5681 5682 5684
5748 5745 5742 5739 5736 5733 5731 5728 5726 5723 5720 5717 5715 5712 5710 5708 5706 5703 5701 5699 5697 5695 5693 5692 5690 5689 5688 5686 5684 5682 5681 5680 5679 5678 5677 5677 5678 5678 5678 5679 5680 5681 5682
5748 5745 5742 5739 5736 5734 5731 5728 5726 5723 5720 5718 5715 5713 5710 5708 5706 5703 5701 5699 5697 5696 5694 5692 5691 5689 5688 5686 5685 5683 5682 5680 5679 5678 5678 5678 5678 5678 5678 5679 5679 5680 5682